Time,TemperatureF,DewpointF,PressureIn,WindDirection,WindDirectionDegrees,WindSpeedMPH,WindSpeedGustMPH,Humidity,HourlyPrecipIn,Conditions,Clouds,dailyrainin,SolarRadiationWatts/m^2,SoftwareType,DateUTC
2013-07-19 00:02:00,73.0,72.0,-100.00,NW,324,0.0,2.0,97,0.00,,,0.02,0.000000,,2013-07-19 04:02:00,
2013-07-19 00:33:00,73.0,72.0,-100.00,NW,324,0.0,2.0,97,0.00,,,0.02,0.000000,,2013-07-19 04:33:00,
2013-07-19 00:44:00,73.0,72.0,-100.00,NW,324,0.0,2.0,97,0.00,,,0.02,0.000000,,2013-07-19 04:44:00,
2013-07-19 00:52:00,73.0,72.0,-100.00,NW,324,0.0,2.0,97,0.00,,,0.02,0.000000,,2013-07-19 04:52:00,
2013-07-19 01:32:00,73.0,72.0,-100.00,NNE,13,1.0,2.0,96,0.00,,,0.01,0.000000,,2013-07-19 05:32:00,
2013-07-19 01:43:00,73.0,72.0,-100.00,NNE,13,1.0,2.0,96,0.00,,,0.01,0.000000,,2013-07-19 05:43:00,
2013-07-19 01:53:00,73.0,72.0,-100.00,NNE,13,1.0,2.0,96,0.00,,,0.01,0.000000,,2013-07-19 05:53:00,
2013-07-19 02:01:00,73.0,72.0,-100.00,NNE,13,1.0,2.0,96,0.00,,,0.01,0.000000,,2013-07-19 06:01:00,
2013-07-19 02:22:00,72.0,71.0,-100.00,North,4,1.0,3.0,97,0.00,,,0.00,0.000000,,2013-07-19 06:22:00,
2013-07-19 02:33:00,72.0,71.0,-100.00,North,4,1.0,3.0,97,0.00,,,0.00,0.000000,,2013-07-19 06:33:00,
2013-07-19 02:43:00,72.0,71.0,-100.00,North,4,1.0,3.0,97,0.00,,,0.00,0.000000,,2013-07-19 06:43:00,
2013-07-19 02:53:00,72.0,71.0,-100.00,North,4,1.0,3.0,97,0.00,,,0.00,0.000000,,2013-07-19 06:53:00,
2013-07-19 03:01:00,72.0,71.0,-100.00,North,4,1.0,3.0,97,0.00,,,0.00,0.000000,,2013-07-19 07:01:00,
2013-07-19 03:33:00,71.0,70.0,-100.00,North,359,1.0,2.0,98,0.00,,,0.00,0.000000,,2013-07-19 07:33:00,
2013-07-19 03:43:00,71.0,70.0,-100.00,North,359,1.0,2.0,98,0.00,,,0.00,0.000000,,2013-07-19 07:43:00,
2013-07-19 03:53:00,71.0,70.0,-100.00,North,359,1.0,2.0,98,0.00,,,0.00,0.000000,,2013-07-19 07:53:00,
2013-07-19 04:01:00,71.0,70.0,-100.00,North,359,1.0,2.0,98,0.00,,,0.00,0.000000,,2013-07-19 08:01:00,
2013-07-19 04:02:00,70.0,69.0,-100.00,NW,319,1.0,2.0,98,0.00,,,-99.99,0.000000,,2013-07-19 08:02:00,
2013-07-19 04:22:00,70.0,69.0,-100.00,NW,319,1.0,2.0,98,0.00,,,-99.99,0.000000,,2013-07-19 08:22:00,
2013-07-19 04:33:00,70.0,69.0,-100.00,NW,319,1.0,2.0,98,0.00,,,-99.99,0.000000,,2013-07-19 08:33:00,
2013-07-19 04:43:00,70.0,69.0,-100.00,NW,319,1.0,2.0,98,0.00,,,-99.99,0.000000,,2013-07-19 08:43:00,
2013-07-19 04:52:00,70.0,69.0,-100.00,NW,319,1.0,2.0,98,0.00,,,-99.99,0.000000,,2013-07-19 08:52:00,
2013-07-19 05:32:00,70.0,69.0,-100.00,NNE,22,1.0,2.0,98,0.00,,,-99.99,0.000000,,2013-07-19 09:32:00,
2013-07-19 05:43:00,70.0,69.0,-100.00,NNE,22,1.0,2.0,98,0.00,,,-99.99,0.000000,,2013-07-19 09:43:00,
2013-07-19 05:52:00,70.0,69.0,-100.00,NNE,22,1.0,2.0,98,0.00,,,-99.99,0.000000,,2013-07-19 09:52:00,
2013-07-19 06:01:00,70.0,69.0,-100.00,NNE,22,1.0,2.0,98,0.00,,,-99.99,0.000000,,2013-07-19 10:01:00,
2013-07-19 06:02:00,69.0,69.0,-100.00,NNW,348,0.0,2.0,99,0.00,,,0.00,0.000000,,2013-07-19 10:02:00,
2013-07-19 06:33:00,69.0,69.0,-100.00,NNW,348,0.0,2.0,99,0.00,,,0.00,0.000000,,2013-07-19 10:33:00,
2013-07-19 06:43:00,69.0,69.0,-100.00,NNW,348,0.0,2.0,99,0.00,,,0.00,0.000000,,2013-07-19 10:43:00,
2013-07-19 06:52:00,69.0,69.0,-100.00,NNW,348,0.0,2.0,99,0.00,,,0.00,0.000000,,2013-07-19 10:52:00,
2013-07-19 07:33:00,69.0,69.0,-100.00,NNW,332,0.0,0.0,99,0.00,,,0.00,3.000000,,2013-07-19 11:33:00,
2013-07-19 07:43:00,69.0,69.0,-100.00,NNW,332,0.0,0.0,99,0.00,,,0.00,3.000000,,2013-07-19 11:43:00,
2013-07-19 07:52:00,69.0,69.0,-100.00,NNW,332,0.0,0.0,99,0.00,,,0.00,3.000000,,2013-07-19 11:52:00,
2013-07-19 08:01:00,69.0,69.0,-100.00,NNW,332,0.0,0.0,99,0.00,,,0.00,3.000000,,2013-07-19 12:01:00,
2013-07-19 08:02:00,71.0,71.0,-100.00,North,2,0.0,0.0,99,0.00,,,0.00,49.000000,,2013-07-19 12:02:00,
2013-07-19 08:33:00,71.0,71.0,-100.00,North,2,0.0,0.0,99,0.00,,,0.00,49.000000,,2013-07-19 12:33:00,
2013-07-19 08:44:00,71.0,71.0,-100.00,North,2,0.0,0.0,99,0.00,,,0.00,49.000000,,2013-07-19 12:44:00,
2013-07-19 08:53:00,71.0,71.0,-100.00,North,2,0.0,0.0,99,0.00,,,0.00,49.000000,,2013-07-19 12:53:00,
2013-07-19 09:02:00,76.0,74.0,-100.00,North,9,0.0,0.0,92,0.00,,,0.00,168.000000,,2013-07-19 13:02:00,
2013-07-19 09:32:00,76.0,74.0,-100.00,North,9,0.0,0.0,92,0.00,,,0.00,168.000000,,2013-07-19 13:32:00,
2013-07-19 09:43:00,76.0,74.0,-100.00,North,9,0.0,0.0,92,0.00,,,0.00,168.000000,,2013-07-19 13:43:00,
2013-07-19 09:53:00,76.0,74.0,-100.00,North,9,0.0,0.0,92,0.00,,,0.00,168.000000,,2013-07-19 13:53:00,
2013-07-19 10:02:00,82.0,74.0,-100.00,NNW,336,2.0,4.0,76,0.00,,,0.00,409.000000,,2013-07-19 14:02:00,
2013-07-19 10:33:00,82.0,74.0,-100.00,NNW,336,2.0,4.0,76,0.00,,,0.00,409.000000,,2013-07-19 14:33:00,
2013-07-19 10:43:00,82.0,74.0,-100.00,NNW,336,2.0,4.0,76,0.00,,,0.00,409.000000,,2013-07-19 14:43:00,
2013-07-19 10:53:00,82.0,74.0,-100.00,NNW,336,2.0,4.0,76,0.00,,,0.00,409.000000,,2013-07-19 14:53:00,
2013-07-19 11:32:00,85.0,74.0,-100.00,NW,315,3.0,5.0,70,0.00,,,0.00,570.000000,,2013-07-19 15:32:00,
2013-07-19 11:43:00,85.0,74.0,-100.00,NW,315,3.0,5.0,70,0.00,,,0.00,570.000000,,2013-07-19 15:43:00,
2013-07-19 11:52:00,85.0,74.0,-100.00,NW,315,3.0,5.0,70,0.00,,,0.00,570.000000,,2013-07-19 15:52:00,
2013-07-19 12:01:00,85.0,74.0,-100.00,NW,315,3.0,5.0,70,0.00,,,0.00,570.000000,,2013-07-19 16:01:00,
2013-07-19 12:02:00,88.0,72.0,-100.00,NW,319,3.0,7.0,60,0.00,,,0.00,671.000000,,2013-07-19 16:02:00,
2013-07-19 12:32:00,88.0,72.0,-100.00,NW,319,3.0,7.0,60,0.00,,,0.00,671.000000,,2013-07-19 16:32:00,
2013-07-19 12:43:00,88.0,72.0,-100.00,NW,319,3.0,7.0,60,0.00,,,0.00,671.000000,,2013-07-19 16:43:00,
2013-07-19 12:53:00,88.0,72.0,-100.00,NW,319,3.0,7.0,60,0.00,,,0.00,671.000000,,2013-07-19 16:53:00,
2013-07-19 13:32:00,89.0,74.0,-100.00,West,281,3.0,5.0,61,0.00,,,0.00,794.000000,,2013-07-19 17:32:00,
2013-07-19 13:43:00,89.0,74.0,-100.00,West,281,3.0,5.0,61,0.00,,,0.00,794.000000,,2013-07-19 17:43:00,
2013-07-19 13:52:00,89.0,74.0,-100.00,West,281,3.0,5.0,61,0.00,,,0.00,794.000000,,2013-07-19 17:52:00,
2013-07-19 14:01:00,89.0,74.0,-100.00,West,281,3.0,5.0,61,0.00,,,0.00,794.000000,,2013-07-19 18:01:00,
2013-07-19 14:32:00,88.0,71.0,-100.00,WNW,283,2.0,6.0,58,0.00,,,0.00,739.000000,,2013-07-19 18:32:00,
2013-07-19 14:43:00,88.0,71.0,-100.00,WNW,283,2.0,6.0,58,0.00,,,0.00,739.000000,,2013-07-19 18:43:00,
2013-07-19 14:52:00,88.0,71.0,-100.00,WNW,283,2.0,6.0,58,0.00,,,0.00,739.000000,,2013-07-19 18:52:00,
2013-07-19 15:01:00,88.0,71.0,-100.00,WNW,283,2.0,6.0,58,0.00,,,0.00,739.000000,,2013-07-19 19:01:00,
2013-07-19 15:32:00,90.0,72.0,-100.00,WSW,243,2.0,7.0,56,0.00,,,0.00,897.000000,,2013-07-19 19:32:00,
2013-07-19 15:43:00,90.0,72.0,-100.00,WSW,243,2.0,7.0,56,0.00,,,0.00,897.000000,,2013-07-19 19:43:00,
2013-07-19 15:52:00,90.0,72.0,-100.00,WSW,243,2.0,7.0,56,0.00,,,0.00,897.000000,,2013-07-19 19:52:00,
2013-07-19 16:01:00,90.0,72.0,-100.00,WSW,243,2.0,7.0,56,0.00,,,0.00,897.000000,,2013-07-19 20:01:00,
2013-07-19 16:33:00,91.0,73.0,-100.00,SSW,213,2.0,4.0,55,0.00,,,0.00,809.000000,,2013-07-19 20:33:00,
2013-07-19 16:43:00,91.0,73.0,-100.00,SSW,213,2.0,4.0,55,0.00,,,0.00,809.000000,,2013-07-19 20:43:00,
2013-07-19 16:52:00,91.0,73.0,-100.00,SSW,213,2.0,4.0,55,0.00,,,0.00,809.000000,,2013-07-19 20:52:00,
2013-07-19 17:01:00,91.0,73.0,-100.00,SSW,213,2.0,4.0,55,0.00,,,0.00,809.000000,,2013-07-19 21:01:00,
2013-07-19 17:32:00,86.0,73.0,-100.00,NNW,346,1.0,4.0,66,0.00,,,0.00,454.000000,,2013-07-19 21:32:00,
2013-07-19 17:43:00,86.0,73.0,-100.00,NNW,346,1.0,4.0,66,0.00,,,0.00,454.000000,,2013-07-19 21:43:00,
2013-07-19 17:52:00,86.0,73.0,-100.00,NNW,346,1.0,4.0,66,0.00,,,0.00,454.000000,,2013-07-19 21:52:00,
2013-07-19 18:01:00,86.0,73.0,-100.00,NNW,346,1.0,4.0,66,0.00,,,0.00,454.000000,,2013-07-19 22:01:00,
2013-07-19 18:32:00,86.0,75.0,-100.00,North,355,3.0,4.0,69,0.00,,,0.00,329.000000,,2013-07-19 22:32:00,
2013-07-19 18:43:00,86.0,75.0,-100.00,North,355,3.0,4.0,69,0.00,,,0.00,329.000000,,2013-07-19 22:43:00,
2013-07-19 18:52:00,86.0,75.0,-100.00,North,355,3.0,4.0,69,0.00,,,0.00,329.000000,,2013-07-19 22:52:00,
2013-07-19 19:01:00,86.0,75.0,-100.00,North,355,3.0,4.0,69,0.00,,,0.00,329.000000,,2013-07-19 23:01:00,
2013-07-19 19:33:00,88.0,76.0,-100.00,NE,47,1.0,4.0,67,0.00,,,0.00,335.000000,,2013-07-19 23:33:00,
2013-07-19 19:43:00,88.0,76.0,-100.00,NE,47,1.0,4.0,67,0.00,,,0.00,335.000000,,2013-07-19 23:43:00,
2013-07-19 19:52:00,88.0,76.0,-100.00,NE,47,1.0,4.0,67,0.00,,,0.00,335.000000,,2013-07-19 23:52:00,
2013-07-19 20:01:00,88.0,76.0,-100.00,NE,47,1.0,4.0,67,0.00,,,0.00,335.000000,,2013-07-20 00:01:00,
2013-07-19 20:22:00,81.0,73.0,-100.00,WSW,248,2.0,5.0,78,0.00,,,0.00,69.000000,,2013-07-20 00:22:00,
2013-07-19 20:32:00,81.0,73.0,-100.00,WSW,248,2.0,5.0,78,0.00,,,0.00,69.000000,,2013-07-20 00:32:00,
2013-07-19 20:43:00,81.0,73.0,-100.00,WSW,248,2.0,5.0,78,0.00,,,0.00,69.000000,,2013-07-20 00:43:00,
2013-07-19 20:52:00,81.0,73.0,-100.00,WSW,248,2.0,5.0,78,0.00,,,0.00,69.000000,,2013-07-20 00:52:00,
2013-07-19 21:01:00,81.0,73.0,-100.00,WSW,248,2.0,5.0,78,0.00,,,0.00,69.000000,,2013-07-20 01:01:00,
2013-07-19 21:02:00,78.0,72.0,-100.00,WSW,238,1.0,3.0,83,0.00,,,0.00,11.000000,,2013-07-20 01:02:00,
2013-07-19 21:22:00,78.0,72.0,-100.00,WSW,238,1.0,3.0,83,0.00,,,0.00,11.000000,,2013-07-20 01:22:00,
2013-07-19 21:32:00,78.0,72.0,-100.00,WSW,238,1.0,3.0,83,0.00,,,0.00,11.000000,,2013-07-20 01:32:00,
2013-07-19 21:52:00,78.0,72.0,-100.00,WSW,238,1.0,3.0,83,0.00,,,0.00,11.000000,,2013-07-20 01:52:00,
2013-07-19 22:02:00,77.0,71.0,-100.00,NNW,347,3.0,8.0,81,0.00,,,0.00,0.000000,,2013-07-20 02:02:00,
2013-07-19 22:33:00,77.0,71.0,-100.00,NNW,347,3.0,8.0,81,0.00,,,0.00,0.000000,,2013-07-20 02:33:00,
2013-07-19 22:44:00,77.0,71.0,-100.00,NNW,347,3.0,8.0,81,0.00,,,0.00,0.000000,,2013-07-20 02:44:00,
2013-07-19 22:52:00,77.0,71.0,-100.00,NNW,347,3.0,8.0,81,0.00,,,0.00,0.000000,,2013-07-20 02:52:00,
2013-07-19 23:02:00,75.0,68.0,-100.00,North,352,1.0,6.0,80,0.00,,,0.00,0.000000,,2013-07-20 03:02:00,
2013-07-19 23:32:00,75.0,68.0,-100.00,North,352,1.0,6.0,80,0.00,,,0.00,0.000000,,2013-07-20 03:32:00,
2013-07-19 23:44:00,75.0,68.0,-100.00,North,352,1.0,6.0,80,0.00,,,0.00,0.000000,,2013-07-20 03:44:00,
2013-07-19 23:53:00,75.0,68.0,-100.00,North,352,1.0,6.0,80,0.00,,,0.00,0.000000,,2013-07-20 03:53:00,